Time,TemperatureF,DewpointF,PressureIn,WindDirection,WindDirectionDegrees,WindSpeedMPH,WindSpeedGustMPH,Humidity,HourlyPrecipIn,Conditions,Clouds,dailyrainin,SoftwareType,DateUTC
2013-02-16 00:00:00,35.4,26.0,30.35,West,267,0.0,1.0,69,0.00,,,0.00,weatherlink.com 1.10,2013-02-16 07:00:00,
2013-02-16 00:15:00,34.9,26.0,30.35,NW,319,0.0,1.0,70,0.00,,,0.00,weatherlink.com 1.10,2013-02-16 07:15:00,
2013-02-16 00:30:00,35.5,25.0,30.35,WNW,290,0.0,3.0,67,0.00,,,0.00,weatherlink.com 1.10,2013-02-16 07:30:00,
2013-02-16 00:45:00,35.3,26.0,30.35,WNW,283,0.0,3.0,70,0.00,,,0.00,weatherlink.com 1.10,2013-02-16 07:45:00,
2013-02-16 01:00:00,35.1,25.0,30.34,WNW,292,0.0,1.0,67,0.00,,,0.00,weatherlink.com 1.10,2013-02-16 08:00:00,
2013-02-16 01:16:00,35.3,25.0,30.34,West,259,0.0,2.0,65,0.00,,,0.00,weatherlink.com 1.10,2013-02-16 08:16:00,
2013-02-16 01:31:00,35.2,25.0,30.34,WNW,287,0.0,2.0,67,0.00,,,0.00,weatherlink.com 1.10,2013-02-16 08:31:00,
2013-02-16 01:46:00,34.7,26.0,30.34,West,281,0.0,2.0,71,0.00,,,0.00,weatherlink.com 1.10,2013-02-16 08:46:00,
2013-02-16 02:01:00,34.9,27.0,30.34,WSW,248,0.0,3.0,72,0.00,,,0.00,weatherlink.com 1.10,2013-02-16 09:01:00,
2013-02-16 02:16:00,34.9,27.0,30.34,NW,316,0.0,2.0,73,0.00,,,0.00,weatherlink.com 1.10,2013-02-16 09:16:00,
2013-02-16 02:31:00,35.1,28.0,30.35,NW,304,0.0,3.0,74,0.00,,,0.00,weatherlink.com 1.10,2013-02-16 09:31:00,
2013-02-16 02:46:00,35.0,28.0,30.35,NW,307,1.0,4.0,74,0.00,,,0.00,weatherlink.com 1.10,2013-02-16 09:46:00,
2013-02-16 03:01:00,34.6,27.0,30.34,NW,304,2.0,4.0,74,0.00,,,0.00,weatherlink.com 1.10,2013-02-16 10:01:00,
2013-02-16 03:16:00,34.5,27.0,30.35,NW,312,1.0,3.0,75,0.00,,,0.00,weatherlink.com 1.10,2013-02-16 10:16:00,
2013-02-16 03:31:00,35.2,28.0,30.36,WNW,294,1.0,4.0,76,0.00,,,0.00,weatherlink.com 1.10,2013-02-16 10:31:00,
2013-02-16 03:46:00,35.6,28.0,30.36,NW,319,1.0,6.0,73,0.00,,,0.00,weatherlink.com 1.10,2013-02-16 10:46:00,
2013-02-16 04:01:00,35.3,27.0,30.35,NW,309,3.0,5.0,72,0.00,,,0.00,weatherlink.com 1.10,2013-02-16 11:01:00,
2013-02-16 04:16:00,34.5,27.0,30.35,NNE,20,0.0,3.0,73,0.00,,,0.00,weatherlink.com 1.10,2013-02-16 11:16:00,
2013-02-16 04:31:00,33.8,26.0,30.36,NNW,332,0.0,3.0,73,0.00,,,0.00,weatherlink.com 1.10,2013-02-16 11:31:00,
2013-02-16 04:46:00,33.3,26.0,30.37,WNW,295,0.0,2.0,75,0.00,,,0.00,weatherlink.com 1.10,2013-02-16 11:46:00,
2013-02-16 05:01:00,33.2,26.0,30.36,NW,304,1.0,4.0,76,0.00,,,0.00,weatherlink.com 1.10,2013-02-16 12:01:00,
2013-02-16 05:16:00,33.3,26.0,30.36,NW,309,0.0,3.0,75,0.00,,,0.00,weatherlink.com 1.10,2013-02-16 12:16:00,
2013-02-16 05:31:00,33.5,26.0,30.36,NW,326,0.0,3.0,75,0.00,,,0.00,weatherlink.com 1.10,2013-02-16 12:31:00,
2013-02-16 05:46:00,33.8,27.0,30.37,WNW,295,0.0,1.0,77,0.00,,,0.00,weatherlink.com 1.10,2013-02-16 12:46:00,
2013-02-16 06:01:00,33.7,27.0,30.37,WNW,287,0.0,1.0,77,0.00,,,0.00,weatherlink.com 1.10,2013-02-16 13:01:00,
2013-02-16 06:16:00,33.8,27.0,30.37,WNW,303,0.0,2.0,77,0.00,,,0.00,weatherlink.com 1.10,2013-02-16 13:16:00,
2013-02-16 06:31:00,33.9,28.0,30.37,NW,315,0.0,1.0,78,0.00,,,0.00,weatherlink.com 1.10,2013-02-16 13:31:00,
2013-02-16 06:46:00,34.7,28.0,30.38,West,267,0.0,2.0,77,0.00,,,0.00,weatherlink.com 1.10,2013-02-16 13:46:00,
2013-02-16 07:01:00,35.2,28.0,30.39,WNW,296,1.0,4.0,76,0.00,,,0.00,weatherlink.com 1.10,2013-02-16 14:01:00,
2013-02-16 07:16:00,37.1,29.0,30.39,WNW,295,1.0,2.0,73,0.00,,,0.00,weatherlink.com 1.10,2013-02-16 14:16:00,
2013-02-16 07:31:00,38.7,30.0,30.39,NW,320,1.0,3.0,70,0.00,,,0.00,weatherlink.com 1.10,2013-02-16 14:31:00,
2013-02-16 07:46:00,39.1,29.0,30.39,WNW,287,0.0,3.0,68,0.00,,,0.00,weatherlink.com 1.10,2013-02-16 14:46:00,
2013-02-16 08:01:00,40.1,30.0,30.39,WNW,284,1.0,2.0,68,0.00,,,0.00,weatherlink.com 1.10,2013-02-16 15:01:00,
2013-02-16 08:16:00,41.3,30.0,30.38,NW,308,3.0,3.0,64,0.00,,,0.00,weatherlink.com 1.10,2013-02-16 15:16:00,
2013-02-16 08:31:00,42.1,31.0,30.39,West,278,1.0,2.0,64,0.00,,,0.00,weatherlink.com 1.10,2013-02-16 15:31:00,
2013-02-16 08:46:00,43.5,32.0,30.39,WNW,295,1.0,6.0,64,0.00,,,0.00,weatherlink.com 1.10,2013-02-16 15:46:00,
2013-02-16 09:02:00,44.1,33.0,30.39,NW,309,4.0,7.0,65,0.00,,,0.00,weatherlink.com 1.10,2013-02-16 16:02:00,
2013-02-16 09:17:00,44.0,32.0,30.39,NW,309,1.0,8.0,64,0.00,,,0.00,weatherlink.com 1.10,2013-02-16 16:17:00,
2013-02-16 09:32:00,44.8,32.0,30.39,WNW,300,4.0,10.0,62,0.00,,,0.00,weatherlink.com 1.10,2013-02-16 16:32:00,
2013-02-16 09:47:00,44.9,32.0,30.39,NW,308,7.0,8.0,60,0.00,,,0.00,weatherlink.com 1.10,2013-02-16 16:47:00,
2013-02-16 10:02:00,45.5,32.0,30.38,WNW,291,3.0,8.0,59,0.00,,,0.00,weatherlink.com 1.10,2013-02-16 17:02:00,
2013-02-16 10:17:00,46.1,32.0,30.38,North,8,0.0,8.0,58,0.00,,,0.00,weatherlink.com 1.10,2013-02-16 17:17:00,
2013-02-16 10:32:00,47.1,32.0,30.38,NW,305,4.0,11.0,57,0.00,,,0.00,weatherlink.com 1.10,2013-02-16 17:32:00,
2013-02-16 10:47:00,47.3,32.0,30.37,SW,233,2.0,8.0,56,0.00,,,0.00,weatherlink.com 1.10,2013-02-16 17:47:00,
2013-02-16 11:02:00,47.5,31.0,30.37,West,267,8.0,11.0,53,0.00,,,0.00,weatherlink.com 1.10,2013-02-16 18:02:00,
2013-02-16 11:17:00,48.1,33.0,30.36,WSW,257,6.0,10.0,56,0.00,,,0.00,weatherlink.com 1.10,2013-02-16 18:17:00,
2013-02-16 11:32:00,48.6,33.0,30.35,NW,312,3.0,7.0,55,0.00,,,0.00,weatherlink.com 1.10,2013-02-16 18:32:00,
2013-02-16 11:47:00,48.5,32.0,30.33,NW,319,1.0,6.0,53,0.00,,,0.00,weatherlink.com 1.10,2013-02-16 18:47:00,
2013-02-16 12:02:00,48.9,32.0,30.32,NW,316,5.0,9.0,53,0.00,,,0.00,weatherlink.com 1.10,2013-02-16 19:02:00,
2013-02-16 12:17:00,49.0,31.0,30.31,WNW,302,3.0,6.0,51,0.00,,,0.00,weatherlink.com 1.10,2013-02-16 19:17:00,
2013-02-16 12:32:00,49.7,33.0,30.30,WNW,287,3.0,8.0,53,0.00,,,0.00,weatherlink.com 1.10,2013-02-16 19:32:00,
2013-02-16 12:47:00,50.2,32.0,30.29,NW,307,3.0,9.0,50,0.00,,,0.00,weatherlink.com 1.10,2013-02-16 19:47:00,
2013-02-16 13:02:00,50.3,31.0,30.29,NNW,336,0.0,8.0,48,0.00,,,0.00,weatherlink.com 1.10,2013-02-16 20:02:00,
2013-02-16 13:17:00,51.4,33.0,30.28,North,351,1.0,11.0,49,0.00,,,0.00,weatherlink.com 1.10,2013-02-16 20:17:00,
2013-02-16 13:32:00,51.1,31.0,30.27,WNW,297,3.0,8.0,46,0.00,,,0.00,weatherlink.com 1.10,2013-02-16 20:32:00,
2013-02-16 13:48:00,51.2,31.0,30.25,NW,307,2.0,5.0,47,0.00,,,0.00,weatherlink.com 1.10,2013-02-16 20:48:00,
2013-02-16 14:18:00,52.1,31.0,30.24,NW,322,0.0,7.0,44,0.00,,,0.00,weatherlink.com 1.10,2013-02-16 21:18:00,
2013-02-16 14:33:00,52.2,30.0,30.23,WSW,253,0.0,5.0,42,0.00,,,0.00,weatherlink.com 1.10,2013-02-16 21:33:00,
2013-02-16 14:48:00,52.7,29.0,30.23,WSW,255,0.0,5.0,41,0.00,,,0.00,weatherlink.com 1.10,2013-02-16 21:48:00,
2013-02-16 15:03:00,53.7,29.0,30.23,NW,316,2.0,4.0,39,0.00,,,0.00,weatherlink.com 1.10,2013-02-16 22:03:00,
2013-02-16 15:18:00,53.3,28.0,30.22,WNW,287,1.0,3.0,38,0.00,,,0.00,weatherlink.com 1.10,2013-02-16 22:18:00,
2013-02-16 15:33:00,53.2,28.0,30.22,WSW,238,1.0,6.0,38,0.00,,,0.00,weatherlink.com 1.10,2013-02-16 22:33:00,
2013-02-16 15:48:00,53.5,28.0,30.21,South,185,0.0,4.0,38,0.00,,,0.00,weatherlink.com 1.10,2013-02-16 22:48:00,
2013-02-16 16:07:00,53.8,30.0,30.21,SW,235,3.0,6.0,41,0.00,,,0.00,weatherlink.com 1.10,2013-02-16 23:07:00,
2013-02-16 16:19:00,53.3,30.0,30.21,WSW,245,2.0,4.0,41,0.00,,,0.00,weatherlink.com 1.10,2013-02-16 23:19:00,
2013-02-16 16:34:00,53.2,31.0,30.21,SE,146,1.0,3.0,43,0.00,,,0.00,weatherlink.com 1.10,2013-02-16 23:34:00,
2013-02-16 16:49:00,52.4,31.0,30.20,SE,144,0.0,1.0,45,0.00,,,0.00,weatherlink.com 1.10,2013-02-16 23:49:00,
2013-02-16 17:04:00,50.9,32.0,30.20,SE,143,0.0,1.0,49,0.00,,,0.00,weatherlink.com 1.10,2013-02-17 00:04:00,
2013-02-16 17:19:00,49.5,30.0,30.19,SE,144,0.0,1.0,47,0.00,,,0.00,weatherlink.com 1.10,2013-02-17 00:19:00,
2013-02-16 17:34:00,48.0,30.0,30.19,ESE,108,1.0,1.0,51,0.00,,,0.00,weatherlink.com 1.10,2013-02-17 00:34:00,
2013-02-16 17:50:00,47.5,30.0,30.18,ESE,107,2.0,3.0,52,0.00,,,0.00,weatherlink.com 1.10,2013-02-17 00:50:00,
2013-02-16 18:05:00,46.9,30.0,30.18,East,97,2.0,3.0,52,0.00,,,0.00,weatherlink.com 1.10,2013-02-17 01:05:00,
2013-02-16 18:20:00,46.2,30.0,30.18,ENE,72,1.0,2.0,54,0.00,,,0.00,weatherlink.com 1.10,2013-02-17 01:20:00,
2013-02-16 18:35:00,45.8,30.0,30.18,East,101,2.0,3.0,55,0.00,,,0.00,weatherlink.com 1.10,2013-02-17 01:35:00,
2013-02-16 18:50:00,45.4,30.0,30.18,East,89,3.0,3.0,56,0.00,,,0.00,weatherlink.com 1.10,2013-02-17 01:50:00,
2013-02-16 19:05:00,45.2,30.0,30.18,SE,124,2.0,4.0,56,0.00,,,0.00,weatherlink.com 1.10,2013-02-17 02:05:00,
2013-02-16 19:20:00,44.7,30.0,30.17,ESE,120,2.0,5.0,57,0.00,,,0.00,weatherlink.com 1.10,2013-02-17 02:20:00,
2013-02-16 19:35:00,44.1,30.0,30.18,ESE,108,2.0,3.0,59,0.00,,,0.00,weatherlink.com 1.10,2013-02-17 02:35:00,
2013-02-16 19:50:00,43.7,30.0,30.18,East,96,1.0,3.0,59,0.00,,,0.00,weatherlink.com 1.10,2013-02-17 02:50:00,
2013-02-16 20:05:00,43.7,30.0,30.18,East,98,2.0,3.0,59,0.00,,,0.00,weatherlink.com 1.10,2013-02-17 03:05:00,
2013-02-16 20:20:00,43.5,30.0,30.18,East,92,1.0,3.0,59,0.00,,,0.00,weatherlink.com 1.10,2013-02-17 03:20:00,
2013-02-16 20:35:00,43.1,29.0,30.18,ESE,105,1.0,3.0,59,0.00,,,0.00,weatherlink.com 1.10,2013-02-17 03:35:00,
2013-02-16 20:50:00,42.8,30.0,30.18,East,94,3.0,4.0,60,0.00,,,0.00,weatherlink.com 1.10,2013-02-17 03:50:00,
2013-02-16 21:04:00,42.5,30.0,30.18,East,96,3.0,3.0,61,0.00,,,0.00,weatherlink.com 1.10,2013-02-17 04:04:00,
2013-02-16 21:19:00,42.2,29.0,30.18,East,98,2.0,3.0,61,0.00,,,0.00,weatherlink.com 1.10,2013-02-17 04:19:00,
2013-02-16 21:34:00,42.1,29.0,30.18,East,79,1.0,3.0,61,0.00,,,0.00,weatherlink.com 1.10,2013-02-17 04:34:00,
2013-02-16 21:49:00,41.8,29.0,30.18,East,81,2.0,3.0,62,0.00,,,0.00,weatherlink.com 1.10,2013-02-17 04:49:00,
2013-02-16 22:04:00,41.3,29.0,30.17,ESE,108,3.0,4.0,63,0.00,,,0.00,weatherlink.com 1.10,2013-02-17 05:04:00,
2013-02-16 22:20:00,41.0,30.0,30.17,East,89,2.0,4.0,64,0.00,,,0.00,weatherlink.com 1.10,2013-02-17 05:20:00,
2013-02-16 22:35:00,41.2,29.0,30.16,ESE,113,4.0,5.0,63,0.00,,,0.00,weatherlink.com 1.10,2013-02-17 05:35:00,
2013-02-16 22:50:00,41.4,29.0,30.16,ESE,115,3.0,5.0,62,0.00,,,0.00,weatherlink.com 1.10,2013-02-17 05:50:00,
2013-02-16 23:05:00,41.5,29.0,30.16,ESE,110,3.0,4.0,62,0.00,,,0.00,weatherlink.com 1.10,2013-02-17 06:05:00,
2013-02-16 23:20:00,41.3,29.0,30.16,SE,128,4.0,5.0,62,0.00,,,0.00,weatherlink.com 1.10,2013-02-17 06:20:00,
2013-02-16 23:35:00,41.7,29.0,30.15,ESE,120,3.0,6.0,60,0.00,,,0.00,weatherlink.com 1.10,2013-02-17 06:35:00,
2013-02-16 23:50:00,41.4,29.0,30.15,ESE,116,2.0,5.0,61,0.00,,,0.00,weatherlink.com 1.10,2013-02-17 06:50:00,